Regional Weather Roundup
Issued by NWS Cleveland, OH

Home | Current Version | Previous Version | Graphics & Text | Print | Product List | Glossary On
Versions: 1 2 3 4 5 6 7 8 9 10 11 12 13 14 15 16 17 18 19 20 21 22 23 24 25 26 27 28 29 30 31 32 33 34 35 36 37 38 39 40 41 42 43 44 45 46 47 48 49 50
000
ASUS41 KCLE 251900
RWRCLE
OHIO REGIONAL WEATHER ROUNDUP
NATIONAL WEATHER SERVICE WILMINGTON, OH
300 PM EDT SAT OCT 25 2014

NOTE: "FAIR" INDICATES FEW OR NO CLOUDS BELOW 12,000 FEET WITH NO
SIGNIFICANT WEATHER AND/OR OBSTRUCTIONS TO VISIBILITY.

OHZ001>008-015>018-024>027-034-035-043-044-252000-
   NORTHWEST OHIO

CITY           SKY/WX    TMP DP  RH WIND       PRES   REMARKS
DEFIANCE       SUNNY     68  50  52 W14G22    29.85F
FINDLAY        SUNNY     72  52  49 W17G26    29.82F
TOLEDO EXPRESS SUNNY     67  51  56 W23       29.81F
TOLEDO METCALF SUNNY     68  52  56 W17       29.80F
LIMA           SUNNY     73  52  47 W20G28    29.86S
$$

OHZ009>014-019>023-028>033-038-089-252000-
   NORTHEAST OHIO

CITY           SKY/WX    TMP DP  RH WIND       PRES   REMARKS
CLE-HOPKINS    MOSUNNY   70  54  56 W16       29.79F
CLE-LAKEFRONT  SUNNY     61  55  81 W16       29.77F
CUY CO. ARPT   SUNNY     64  55  72 NW18G26   29.78S
LORAIN-ELYRIA  LGT RAIN  69  52  54 W15G28    29.79S
ASHTABULA      PTSUNNY   64  52  64 W18G29    29.75F
AKRON-CANTON   PTSUNNY   69  52  54 W17G23    29.79F
WOOSTER        NOT AVBL
MANSFIELD      SUNNY     70  53  54 W14G24    29.82F
YOUNGSTOWN     PTSUNNY   68  52  56 W13G21    29.76F
$$

OHZ042-051>053-060>062-070>072-077>081-252000-
  SOUTHWEST OHIO

CITY           SKY/WX    TMP DP  RH WIND       PRES   REMARKS
CINC-COVINGTON MOSUNNY   72  57  59 W13       29.93F
CINC-LUNKEN    SUNNY     71  58  63 SW14      29.92F
HAMILTON       SUNNY     75  58  55 SW8       29.92F
DAYTON         NOT AVBL
WRIGHT-PAT AFB SUNNY     73  56  56 SW12      29.88F
DAYTON GENERAL SUNNY     70  56  61 SW13      29.90F
WILMINGTON     LGT RAIN  68  54  60 W14       29.91S
$$

OHZ036-037-039>041-045>050-054>059-063>069-073>076-082>088-252000-
  CENTRAL AND SOUTHEAST OHIO

CITY           SKY/WX    TMP DP  RH WIND       PRES   REMARKS
COLUMBUS       MOSUNNY   71  54  54 SW16      29.86F
OSU AIRPORT    SUNNY     70  54  56 W13G21    29.86F
BOLTON FIELD   NOT AVBL
RICKENBACK AFB NOT AVBL
NEWARK         SUNNY     70  53  54 SW14G21   29.85F
MARION         SUNNY     72  52  49 W14       29.84F HAZE
LANCASTER      MOSUNNY   68  55  63 SW14G22   29.87F
ZANESVILLE     PTSUNNY   66  52  60 W14G21    29.85F
NEW PHILLY     MOSUNNY   70  53  54 SW10G17   29.82F
$$



USA.gov is the U.S. government's official web portal to all federal, state and local government web resources and services.